STARLINK-2276 (48601 NORAD) Tracking and Keplerian Element Data

This shows tracking and keplerian element data for the satellite.

Feedback or suggestion? Click here.




ElementValue
Catalog48601
NameSTARLINK-2276
Epoch Orbit1693
Epoch Day236.76608624
Epoch Year2021
RAAN349.1178
Inclination53.0429
Eccentricity0.001257
Argument of Perigee330.8779
Mean Anonmoly29.3988
Mean Motion16.28904837
Decay Rate0.09285607
L11 48601U 21041BA 21236.76608624 .09285607 12212-4 21469-2 0 9993
L22 48601 53.0429 349.1178 0012570 330.8779 29.3988 16.28904837 16935

Live tracking and technical data element details for STARLINK-2276 (NORAD 48601). STARLINK-2276 can be tracked NOW for your location showing map with azimuth and elevation plus other details from your city location.

Track the satellite on the map from your city or location and see movement details for azimuth, elevation, latitude, longitude, range, height, and movement on the map or in text.







IsCatalogInMostPopularTable: catalog: 48601, numindb: 38
Update: records affected: 1



GetName: 48601 STARLINK-2276

Hit Count: updated at: Tue, 19 Oct 2021 09:06:50 GMT